GALAXY 36 (G-36)

Last updated on Tue Jul 01 2025 00:02:49 GMT+0000 (Coordinated Universal Time)

1 54742U 22170B 25181.33601206 -.00000186 00000+0 00000+0 0 9996 2 54742 0.0295 97.5898 0002611 1.3780 211.6356 1.00271309 9382
UTC large
Height (km)
Speed (km/s)
/
Latitude / Longitude
Inclination (degrees)
Orbital Period (minutes)
Azimuth
Elevation
Range (km)
Doppler Factor

Next 0 passes for location: London (51.5072 / 0.1276)

Sorry there are no passes over London.